Hourly Data Report for October 11, 2016

All times are specified in Local Standard Time (LST). Add 1 hour to adjust for Daylight Saving Time where and when it is observed.

KUGLUKTUK A
NUNAVUT

67°49'00.000" N
115°08'38.000" W
22.60 m
2300903
71938
YCO

Download Data

Hourly Data (October 2016)
Hourly Data Report for October 11, 2016
Temp Definition
°C
Dew Point Temp Definition
°C
Rel Hum Definition
%
Wind Dir Definition
10's deg

Wind Spd Definition
km/h
Visibility Definition
km
Stn Press Definition
kPa
Hmdx Definition


Wind Chill Definition


Weather Definition


TIME
00:00 Legend Double Dagger -2.1 -3.2 92 35 20 4.8 101.78   -8 Snow
01:00 Legend Double Dagger -2.5 -4.8 84 36 30 6.4 101.81   -10 Snow
02:00 Legend Double Dagger -2.9 -5.4 83 34 23 3.6 101.83   -9 Snow
03:00 Legend Double Dagger -2.8 -7.4 71 34 39 9.7 101.85   -11 Snow
04:00 Legend Double Dagger -3.3 -9.0 65 33 32 12.9 101.86   -11 Snow,Blowing Snow
05:00 Legend Double Dagger -4.3 -7.8 77 35 35 12.9 101.88   -13 Snow,Blowing Snow
06:00 Legend Double Dagger -5.5 -9.3 75 35 28 24.1 101.92   -13 Blowing Snow
07:00 Legend Double Dagger -5.7 -9.1 77 35 26 24.1 101.94   -13 LegendNANA
08:00 Legend Double Dagger -5.6 -9.0 77 35 24 24.1 101.98   -13 Mostly Cloudy
09:00 Legend Double Dagger -5.8 -8.9 79 30 13 24.1 102.02   -11 LegendNANA
10:00 Legend Double Dagger -6.0 -9.1 79 27 13 24.1 102.03   -11 LegendNANA
11:00 Legend Double Dagger -5.4 -8.5 79 27 10 24.1 102.03   -10 Snow
12:00 Legend Double Dagger -5.1 -9.6 71 35 22 24.1 102.03   -12 LegendNANA
13:00 Legend Double Dagger -5.1 -9.0 74 34 18 24.1 102.05   -11 LegendNANA
14:00 Legend Double Dagger -5.3 -9.4 73 33 21 24.1 102.08   -12 Mostly Cloudy
15:00 Legend Double Dagger -5.7 -9.6 74 34 17 24.1 102.11   -12 LegendNANA
16:00 Legend Double Dagger -5.7 -10.2 71 33 18 24.1 102.12   -12 LegendNANA
17:00 Legend Double Dagger -5.7 -9.8 73 35 25 24.1 102.12   -13 Cloudy
18:00 Legend Double Dagger -6.2 -9.4 78 26 12 24.1 102.13   -11 LegendNANA
19:00 Legend Double Dagger -5.1 -9.2 73 33 26 24.1 102.11   -13 Snow
20:00 Legend Double Dagger -5.9 -9.0 79 35 28 16.1 102.13   -14 Snow
21:00 Legend Double Dagger -6.2 -9.3 79 35 21 16.1 102.13   -13 Snow
22:00 Legend Double Dagger -6.7 -9.4 81 27 16 16.1 102.12   -13 Snow
23:00 Legend Double Dagger -6.8 -9.2 83 24 16 24.1 102.10   -13 Snow

Notes on Data Quality.

Legend

  • E = Estimated
  • M = Missing
  • NA = Not Available
  • ‡ = Partner data that is not subject to review by the National Climate Archives
Date modified: